sat.trackr.live / text

‹ back to catalog

STARLINK-3366

NORAD 51104 · 2022-005A

PAYLOAD ACTIVE UNKNOWN

§ Identity

Operator
Country
US
Launch date
2022-01-19
Launch site
AFETR
Launch vehicle
Mass (kg)
RCS (m²)

Purposes: comms

External: N2YO · Heavens-Above · Gunter

§ Orbital elements

Epoch: 2026-09-20T04:35:47.302944Z

Period
94.63 min
Inclination
53.1994°
Eccentricity
0.0001670
Mean motion
15.21695950 rev/d
Perigee alt
499.6 km
Apogee alt
501.9 km
Semi-major
6,878.9 km
B*
6.5193e-4
RAAN
132.5939°
Arg perigee
93.7957°
Mean anomaly
266.3232°
Rev number
25,828

§ Raw data

STARLINK-33661 51104U 22005A   26263.19151971  .00014642  00000+0  65193-3 0  99962 51104  53.1994 132.5939 0001670  93.7957 266.3232 15.21695950258282

JSON: /api/v1/satellites/51104 · /tle

For live sub-satellite position, see the globe view (requires WebGL).

§ Visibility from observer

Set your observer location to see the next 7 days of passes ≥ 10°. The values pass through the URL so the page stays shareable.

No JS? Fill the form by hand. The geolocation button needs JavaScript.